This is the latest recevied weather packets stored in our database for station/object SP1BMW-13. If no packets are shown the sender has not sent any weather packets the latest 10 day(s).
| Time | Temp. | Humidity | Pressure | Rain* | Wind** | Luminosity | Snow |
|---|---|---|---|---|---|---|---|
| 1778167616 | 11.11° C | 61% | 1015.3 hPa | 0 mm | 1.34 m/s, 334° | 120 W/m² | - |
| 1778167556 | 11.11° C | 61% | 1015.3 hPa | 0 mm | 1.79 m/s, 319° | 121 W/m² | - |
| 1778167496 | 11.11° C | 60% | 1015.2 hPa | 0 mm | 1.34 m/s, 12° | 122 W/m² | - |
| 1778167376 | 11.67° C | 60% | 1015.2 hPa | 0 mm | 3.13 m/s, 331° | 125 W/m² | - |
| 1778167316 | 11.67° C | 60% | 1015.3 hPa | 0 mm | 0.89 m/s, 295° | 126 W/m² | - |
| 1778167256 | 11.67° C | 60% | 1015.1 hPa | 0 mm | 1.34 m/s, 334° | 127 W/m² | - |
| 1778167196 | 11.67° C | 60% | 1015.2 hPa | 0 mm | 2.24 m/s, 355° | 128 W/m² | - |
| 1778167137 | 11.67° C | 60% | 1015.1 hPa | 0 mm | 0.89 m/s, 308° | 129 W/m² | - |
| 1778167076 | 11.67° C | 60% | 1015.2 hPa | 0 mm | 1.79 m/s, 342° | 130 W/m² | - |
| 1778167016 | 11.67° C | 60% | 1015 hPa | 0 mm | 0.45 m/s, 315° | 131 W/m² | - |
| 1778166956 | 11.67° C | 59% | 1015.1 hPa | 0 mm | 0.89 m/s, 10° | 132 W/m² | - |
| 1778166896 | 11.67° C | 59% | 1015.3 hPa | 0 mm | 0.89 m/s, 23° | 132 W/m² | - |
| 1778166836 | 11.67° C | 59% | 1015.1 hPa | 0 mm | 0.89 m/s, 312° | 133 W/m² | - |
| 1778166776 | 11.67° C | 60% | 1015.2 hPa | 0 mm | 2.24 m/s, 31° | 133 W/m² | - |
| 1778166717 | 11.67° C | 59% | 1015.1 hPa | 0 mm | 2.68 m/s, 278° | 133 W/m² | - |
| 1778166656 | 11.67° C | 59% | 1015.1 hPa | 0 mm | 3.58 m/s, 315° | 134 W/m² | - |
| 1778166596 | 11.67° C | 59% | 1015.2 hPa | 0 mm | 0.89 m/s, 74° | 134 W/m² | - |
| 1778166536 | 11.67° C | 59% | 1015.2 hPa | 0 mm | 0.89 m/s, 354° | 134 W/m² | - |
| 1778166476 | 11.67° C | 60% | 1015.3 hPa | 0 mm | 0.45 m/s, 305° | 134 W/m² | - |
| 1778166416 | 11.67° C | 59% | 1015.2 hPa | 0 mm | 2.68 m/s, 349° | 134 W/m² | - |
| 1778166356 | 11.67° C | 59% | 1015.2 hPa | 0 mm | 0 m/s | 135 W/m² | - |
| 1778166296 | 11.67° C | 59% | 1015.2 hPa | 0 mm | 2.24 m/s, 279° | 136 W/m² | - |
| 1778166235 | 11.67° C | 57% | 1015.2 hPa | 0 mm | 0.89 m/s, 353° | 137 W/m² | - |
| 1778166175 | 11.67° C | 58% | 1015.1 hPa | 0 mm | 0.89 m/s, 321° | 137 W/m² | - |
| 1778166115 | 11.67° C | 60% | 1015.1 hPa | 0 mm | 0.45 m/s, 246° | 137 W/m² | - |
* Rain latest hour (hover to see other rain measurements)
** Current wind speed in m/s (hover to see current wind gust speed)